Погода в Вилюйске

Хотите узнать прогноз погоды в Вилюйске? Тогда Вам сюда: Погода в Вилюйске

Поиск расширенной информации на нашем сайте:

Полезная информация:

Новости сайта



02.01.2020
Опубликован Долгосрочный прогноз погоды по городам России и ближнего зарубежья на январь 2020 года.
Карты: Прогноз на январь и февраль 2020 года, Сравнение прогнозируемой аномалии приземной температуры воздуха на январь 2020 года по разным моделям.




Погода в Вилюйске - сегодня

Время (UTC), дата Ветер
(°,м/с) 
Видим.   Явления Облачность Т
(°С)
Тd
(°С)
f(%) Тe
(°С)
Pmin
(гПа)
dP
(гПа)
Po
(мм)
O2
(г/м3)
Тmin Tmax R s Состояние
почвы
09 23.11.20 250 (З) 20000 м  слаб. снег  10/0 средняя 
[Ac As]
-21.2 -23.7 80 -22  1012  1.3  748  328           
12 23.11.20 260 (З) 20000 м  {снег}  10/0 средняя, верхняя 
[As trans|Cs]
-22.8 -25.3 80 -23  1013.6  1.4  749  331    -20.6  0.8     
15 23.11.20 240 (ЮЗ) 20000 м    10/0 верхняя 
[Ci fib]
-23.2 -25.7 80 -24  1014.6  749  332           
18 23.11.20 240 (ЮЗ) 20000 м    10/0 верхняя 
[Cs]
-22.6 -25.1 80 -23  1016.1  1.5  751  331           
21 23.11.20 250 (З) 20000 м    10/0 средняя, верхняя 
[Ac trans|Ci fib]
-21.5 -24 80 -22  1016.8  0.8  751  330           
00 24.11.20 240 (ЮЗ) 20000 м    9/0 верхняя 
[Ci fib]
-22 -24.6 79 -22  1018  1.1  752  331  -23.6      28  равномерный
сухой снег
100% 
15 24.11.20 260 (З) 20000 м    10/0 средняя, верхняя 
[Ac trans|Cs]
-16.4 -19 80 -19  1021.9  -0.2  755  325           
18 24.11.20 270 (З) 20000 м    9/0 верхняя 
[Ci fib]
-17 -19.6 80 -21  1022.6  0.6  756  326           
21 24.11.20 290 (З) 20000 м  слаб. снег  10/0 средняя 
[Ac As]
-17.3 -19.9 80 -22  1023.1  0.5  756  327           
00 25.11.20 290 (З) 20000 м  слаб. снег  10/0 средняя 
[As trans]
-17.1 -19.7 80 -21  1024  0.9  757  327  -18.5    0.4  28  неравномерный
сухой снег
100% 
03 25.11.20 280 (З) 20000 м  слаб. снег  10/0 средняя, верхняя 
[As trans|Cs]
-16.9 -19.5 80 -21  1024.4  0.4  757  327           
06 25.11.20 280 (З) 20000 м  слаб. снег  10/0 средняя, верхняя 
[As trans|Cs]
-18 -20.6 80 -22  1025.5  1.1  758  328           
09 25.11.20 270 (З) 20000 м  {снег}  6/0 верхняя 
[Cs]
-19 -21.6 80 -23  1016.8  1.2  759  330           
12 25.11.20 240 (ЮЗ) 50000 м  {снег}  5/0 верхняя 
[Cs]
-21.4 -23.9 80 -22  1027.3  0.4  759  334    -16.5  0.3     
15 25.11.20 250 (З) 20000 м    6/0 верхняя 
[Ci fib]
-21.4 -23.9 80 -24  1028  0.6  759  334           
18 25.11.20 250 (З) 20000 м    ясно 
-21.9 -24.5 79 -25  1028.8  0.8  760  335           
21 25.11.20 250 (З) 20000 м    ясно 
-23 -25.6 79 -26  1029.3  0.4  760  336           
00 26.11.20 250 (З) 20000 м    3/0 верхняя 
[Ci fib]
-23.2 -25.7 80 -28  1030.1  0.8  761  337  -23.4    0.0  28  равномерный
сухой снег
100% 
03 26.11.20 240 (ЮЗ) 20000 м    3/0 верхняя 
[Ci fib]
-22.8 -25.3 80 -26  1030.4  0.3  761  336           
06 26.11.20 240 (ЮЗ) 20000 м    3/0 верхняя 
[Ci fib]
-22.6 -25.1 80 -26  1030.6  0.2  761  336           
09 26.11.20 250 (З) 20000 м    4/0 верхняя 
[Ci fib]
-23.3 -25.8 80 -28  1031.5  0.9  762  337           
12 26.11.20 260 (З) 20000 м  слаб. снег  10/0 средняя 
[Ac As]
-22 -24.6 79 -25  1032.1  0.7  763  336    -21.5  0.0     
15 26.11.20 230 (ЮЗ) 20000 м  слаб. снег  8/0 средняя 
[Ac As]
-20.9 -23.4 80 -24  1032.3  0.2  763  334           
18 26.11.20 240 (ЮЗ) 20000 м  в посл. час снег  10/0 средняя, верхняя 
[Ac trans|Cs]
-22 -25.3 74 -25  1032.9  0.6  763  336           
21 26.11.20 240 (ЮЗ) 20000 м    10/0 средняя, верхняя 
[As trans|Cs]
-22.8 -26.1 74 -26  1032.5  -0.5  763  337           
Время (UTC), дата Ветер
(°,м/с) 
Видим.   Явления Облачность Т
(°С)
Тd
(°С)
f(%) Тe
(°С)
Pmin
(гПа)
dP
(гПа)
Po
(мм)
O2
(г/м3)
Тmin Tmax R s Состояние
почвы

Для получения пояснительной информации подведите курсор к названию столбца.

ПОГОДА в Вилюйске - архив

Всё, что Вы хотите узнать о погоде в Вилюйске - удобно и подробно!

Выберите нужную дату (начиная с 1 января 2019* года) и нажмите кнопку "Найти".
Будут отображены архивные сводки погоды по пункту Вилюйск, начиная с указанной даты.


Отображать данные в формате CSV (для использования в таблицах Excel)


Внимание! Наш архив погоды предназначен исключительно для личного некоммерческого использования в познавательных целях. Если Вам необходимы официальные справки о состоянии погоды (для производственных, юридических, коммерческих и т.п. целей), обращайтесь в органы Росгидромета.

*Примечание: данная дата относится к архиву по метеостанциям СССР (Россия, СНГ, Балтия).
Архив по метеостанциям Зарубежной Европы и Азии (кроме Китая) хранится 10 дней, по другим регионам земного шара (Китай, Африка, Америка, Австралия, Океания) - 1 день.

Вилюйск - район местоположения метеостанции


Название, широта, долгота, высота метеостанции:
Вилюйск 63.8°ш. 121.6°д. 111 м над ур. моря [Российская Федерация]

Дополнительная информация

В oтличие oт бoльшинства пoгoдных сайтoв мы публикуем пoдрoбную метеoинфoрмацию в детальнoм прoфессиoнальнoм фoрмате.

Характеристики температуры и влажнoсти вoздуха измеряются на высoте 2 м в тени вдали oт зданий и деревьев.
Скoрoсть ветра измеряется на высoте 10 м (на урoвне рoста челoвека скoрoсть ветра ниже в 1.5-2 раза). Если метеoстанция нахoдится в гoрoде или в лесу, тo скoрoсть ветра занижена на 2-4 м/с пo сравнению с oткрытым местoм. Скoрoсть ветра над акватoриями крупных рек и oзёр, а также на вершинах хoлмoв на 2-5 м/с выше, чем в oбычных услoвиях.
Атмoсфернoе давление в разных тoчках местнoсти мoжет значительнo oтличаться oт давления на метеoстанции, в зависимoсти oт услoвий рельефа (при пoдъёме на 10 м давление пoнижается примернo на 1 мм рт.ст.).